Date,TemperatureHighF,TemperatureAvgF,TemperatureLowF,DewpointHighF,DewpointAvgF,DewpointLowF,HumidityHigh,HumidityAvg,HumidityLow,PressureMaxIn,PressureMinIn,WindSpeedMaxMPH,WindSpeedAvgMPH,GustSpeedMaxMPH,PrecipitationSumIn
2014-1-1,17,15,13,14,12,10,91,88,84,30.41,30.23,11,3,17,0.00
2014-1-2,16,12,4,14,10,-1,91,88,81,30.31,30.09,14,6,20,0.00
2014-1-3,12,4,-8,5,-2,-11,87,79,71,30.52,30.25,9,2,13,0.01
2014-1-4,31,23,12,23,14,5,77,70,63,30.25,29.98,19,4,19,0.00
2014-1-5,33,29,20,31,27,18,96,92,77,30.08,29.55,8,2,16,0.10
2014-1-6,20,1,-14,18,-3,-20,93,82,75,30.21,29.60,15,5,24,0.00
2014-1-7,-1,-7,-14,-8,-13,-19,85,77,71,30.45,30.21,15,4,22,0.00
2014-1-8,18,1,-14,9,-4,-18,89,81,69,30.59,30.44,6,1,11,0.00
2014-1-9,25,5,-12,23,2,-15,94,87,79,30.66,30.36,6,1,9,0.00
2014-1-10,38,33,25,38,32,24,97,95,92,30.35,29.69,7,2,12,0.44
2014-1-11,44,39,34,43,38,30,98,94,83,29.69,29.36,11,4,21,0.13
2014-1-12,38,35,33,33,30,28,90,84,77,29.99,29.69,14,4,18,0.00
2014-1-13,45,42,37,41,36,32,91,79,68,29.80,29.59,12,4,18,0.00
2014-1-14,40,34,26,34,29,21,95,82,63,29.83,29.70,14,3,26,0.00
2014-1-15,30,26,21,22,20,16,87,78,65,30.05,29.77,14,6,24,0.00
2014-1-16,28,24,20,26,20,14,92,84,76,30.01,29.68,12,5,20,0.00
2014-1-17,30,25,15,27,20,10,93,81,73,29.98,29.67,11,3,15,0.04
2014-1-18,20,14,6,15,10,3,91,84,75,30.02,29.86,9,2,14,0.00
2014-1-19,28,22,13,24,18,11,92,85,77,29.85,29.59,17,4,25,0.00
2014-1-20,32,26,13,29,21,10,89,80,70,30.08,29.56,8,3,21,0.00
2014-1-21,13,7,-5,9,-1,-9,86,71,58,30.26,30.05,8,3,15,0.00
2014-1-22,12,4,-8,8,-1,-12,89,81,61,30.26,30.02,6,2,11,0.00
2014-1-23,17,8,3,8,4,-1,89,81,66,30.54,30.02,4,1,11,0.00
2014-1-24,17,6,-4,14,0,-8,86,77,67,30.53,29.65,17,5,25,0.00
2014-1-25,29,19,6,25,14,2,92,82,63,29.84,29.37,16,4,24,0.01
2014-1-26,29,15,1,26,11,-2,90,83,76,29.85,29.44,12,3,17,0.00
2014-1-27,27,9,-4,25,4,-8,92,78,62,30.39,29.48,10,3,22,0.00
2014-1-28,5,-3,-10,-5,-10,-15,83,72,59,30.47,30.32,11,4,15,0.00
2014-1-29,17,11,-3,4,1,-9,74,65,54,30.30,30.21,16,5,21,0.00
2014-1-30,28,20,12,24,10,3,91,67,53,30.24,29.87,14,5,22,0.00
2014-1-31,36,31,28,28,25,21,93,80,69,30.17,29.91,13,2,17,0.06